Location: *
(58.4167°N, 22.5000°E)
Time: 07:02:23
(UTC+00:00)

Cosmos 1607 - Pass Details

Date: 22 September 2019
Orbit: 931 x 972 km, 65.0° (Epoch: 17 October)

Event Time Altitude Azimuth Distance (km) Brightness Sun altitude
Exits shadow 23:10:35 56° 303° (WNW) 1,100 4.2 -30.7°
Maximum altitude 23:11:21 61° 336° (NNW) 1,056 4.2 -30.7°
Drops below altitude 10° 23:17:28 10° 57° (ENE) 2,652 6.8 -30.5°
Sets 23:20:03 0° 61° (ENE) 3,601 7.6 -30.4°
